Regional Weather Roundup
Issued by NWS

Home | Current Version | Previous Version | Graphics & Text | Print | Product List | Glossary On
Versions: 1 2 3 4 5 6 7 8 9 10 11 12 13 14 15 16 17 18 19 20 21 22 23 24 25 26 27 28 29 30 31 32 33 34 35 36 37 38 39 40 41 42 43 44 45 46 47 48 49 50
000
ASUS45 KPSR 252110
RWRAZ

ARIZONA HOURLY REGIONAL WEATHER ROUNDUP
NATIONAL WEATHER SERVICE PHOENIX AZ
200 PM MST MON JUL 25 2016

NOTE: FAIR INDICATES FEW OR NO CLOUDS BELOW 12,000 FEET WITH NO
SIGNIFICANT WEATHER AND/OR OBSTRUCTIONS TO VISIBILITY.

AZZ001>003-036-252200-
NORTHWEST ARIZONA

CITY           SKY/WX    TMP DP  RH WIND       PRES   REMARKS
BULLHEAD CITY  PTSUNNY  104  57  21 SW9       29.82F HX 103
KINGMAN        MOSUNNY   97  54  23 W21G26    30.04F
$$

AZZ004>008-015-016-018-252200-
NORTH CENTRAL ARIZONA

CITY           SKY/WX    TMP DP  RH WIND       PRES   REMARKS
GRAND CANYON   MOSUNNY   88  46  23 N7G18     30.27F
WILLIAMS       HVY RAIN  68  46  45 N15G24    30.39R
PRESCOTT       LGT RAIN  85  62  46 SE10      30.15F
FLAGSTAFF      TSTM      57  55  93 SW12      30.39R
PAYSON         PTSUNNY   86  45  23 NE20G30   30.20R THUNDER
PAGE           CLOUDY    97  43  15 VRB5      30.05F
$$

AZZ009>014-017-252200-
NORTHEAST ARIZONA

CITY           SKY/WX    TMP DP  RH WIND       PRES   REMARKS
WINSLOW        PTSUNNY   92  50  23 SW16      30.12F
SAINT JOHNS    CLOUDY    87  46  24 S14G29    30.19F
WINDOW ROCK    MOSUNNY   91  44  19 NW8       30.26F
SHOW LOW       MOSUNNY   77  48  36 E13       30.28S
$$

AZZ023-252200-
GREATER PHOENIX AREA

CITY           SKY/WX    TMP DP  RH WIND       PRES   REMARKS
PHOENIX        MOSUNNY  104  57  21 W13       29.83F HX 103
BUCKEYE          N/A    104  55  20 W9        29.86F HX 103
GLENDALE       MOSUNNY  106  59  21 S9G18     29.85F HX 106
LUKE AFB       SUNNY    105  58  21 SW5G24    29.82F HX 104
DEER VALLEY    SUNNY    101  58  24 MISG      29.86F HX 100
SCOTTSDALE     SUNNY    102  57  22 SW10      29.88F HX 101
MESA-FALCON    MOSUNNY  N/A N/A N/A W12       29.84F
MESA-GATEWAY   MOSUNNY   99  57  25 NW6G17    29.88F
CHANDLER       MOSUNNY  102  59  24 W8        29.86  HX 102
$$

AZZ027-028-252200-
SOUTHWEST MARICOPA COUNTY AND PINAL COUNTY

CITY           SKY/WX    TMP DP  RH WIND       PRES   REMARKS
CASA GRANDE    SUNNY    100  57  23 SW9       29.91F
GILA BEND      MOSUNNY  104  55  19 SW7       29.83F HX 102
$$

AZZ503-504-507>509-252200-
SOUTHEAST ARIZONA

CITY           SKY/WX    TMP DP  RH WIND       PRES   REMARKS
TUCSON         SUNNY    100  58  24 NW8       29.98F
DAVIS-MONTHAN  SUNNY     96  59  28 VRB3      29.97F
RYAN FIELD     SUNNY     99  61  28 NW6G16    29.97F
NOGALES        MOSUNNY   93  56  28 VRB5G18   30.06F
SIERRA VISTA   SUNNY     90  51  26 N10       30.15F
DOUGLAS        SUNNY     86  60  41 W5        30.10F
SAFFORD        SUNNY     98  55  23 W9        29.97F
$$

AZZ020-021-025-026-031-252200-
SOUTHWEST ARIZONA

CITY           SKY/WX    TMP DP  RH WIND       PRES   REMARKS
YUMA           MOSUNNY  104  61  24 SW6       29.80F HX 105
$$

CAZ031-033-041-043-047-048-061-252200-
SOUTHERN CALIFORNIA

CITY           SKY/WX    TMP DP  RH WIND       PRES   REMARKS
DOWNTOWN L.A.  SUNNY     87  64  46 W5        29.90F
L.A. AIRPORT   MOSUNNY   80  66  62 W14       29.92F
SAN DIEGO      CLOUDY    73  66  78 NW7       29.94F
BURBANK        SUNNY     94  53  25 S6        29.92F
ONTARIO        MOSUNNY  100  35  10 SW12G17   29.91F
RIVERSIDE      SUNNY     99  42  14 VRB3      29.91F
PALM SPRINGS   MOSUNNY  107  56  18 E8        29.82F HX 106
EL CENTRO NAS  PTSUNNY  104  59  22 CALM      29.79F HX 104
IMPERIAL       MOSUNNY  105  69  31 W6        29.77F HX 113
BLYTHE         SUNNY    107  60  21 SW8       29.80F HX 108
NEEDLES        MOSUNNY  108  56  18 VRB3      29.83F HX 107
$$

NVZ020-UTZ003-252200-
SOUTHERN NEVADA-UTAH

CITY           SKY/WX    TMP DP  RH WIND       PRES   REMARKS
LAS VEGAS      MOSUNNY  109  34   7 S15G23    29.84F HX 102
SALT LAKE CITY MOSUNNY  100  42  13 N13       30.02F
$$

NMZ009-TXZ055-252200-
NEW MEXICO-WEST TEXAS

CITY           SKY/WX    TMP DP  RH WIND       PRES   REMARKS
ALBUQUERQUE    CLOUDY    92  45  19 W7        30.15F
EL PASO        MOSUNNY   98  46  17 SE9G20    30.02F
$$


........................KEY........................
SKY/WX - SKY CONDITION/WEATHER
TMP    - TEMPERATURE IN FAHRENHEIT
DP     - DEW POINT IN FAHRENHEIT
RH     - RELATIVE HUMIDITY IN PERCENT
WIND   - DIRECTION AND SPEED IN MILES PER HOUR (MPH)
VRB    - VARIABLE WIND DIRECTION
PRES   - MEAN SEA LEVEL PRESSURE IN INCHES OF MERCURY
         F - FALLING PRESSURE   R - RISING PRESSURE
         S - STEADY PRESSURE
VSB    - VISIBILITY IN MILES
HX     - HEAT INDEX IN FAHRENHEIT
WCI    - WIND CHILL INDEX IN FAHRENHEIT
TC     - TEMPERATURE IN CELSIUS WHICH IS ALSO KNOWN AS
         TEMPERATURE IN CENTIGRADE
AFB    - AIR FORCE BASE
         LUKE AFB IS LUKE AIR FORCE BASE
         DAVIS-MONTHAN IS DAVIS-MONTHAN AIR FORCE BASE
NAS    - NAVAL AIR STATION
         EL CENTRO NAS IS EL CENTRO NAVAL AIR STATION
N/A    - NOT AVAILABLE




USA.gov is the U.S. government's official web portal to all federal, state and local government web resources and services.